Simultaneous Nadir Overpasses (SNOs) Predictions

Prediction of SNOs between AQUA and METOP-A Satellite Orbit:

Table of predicted SNOs for the next 14.0 days since TLE Epoch: 10/2/2020
Index Date (AQUA) Time (AQUA) Lat,Lon (AQUA) SZA (AQUA ) Date (METOP-A) Time (METOP-A) Lat,Lon (METOP-A) SZA (METOP-A ) Distance(km) Time Diff (sec)
1 10/03/2020 17:41:36 -76.60, 81.51 98.92 10/03/2020 17:40:26 -76.60, 81.43 98.90 2.05 70
2 10/03/2020 18:31:04 76.66,-111.06 81.17 10/03/2020 18:31:05 76.64,-111.09 81.15 2.45 1
3 10/03/2020 19:20:31 -76.69, 56.47 98.79 10/03/2020 19:21:45 -76.72, 56.52 98.78 3.10 74
4 10/06/2020 13:15:51 -76.64, 147.83 97.81 10/06/2020 13:14:49 -76.62, 147.84 97.81 1.90 62
5 10/06/2020 14:05:18 76.66, -44.60 82.23 10/06/2020 14:05:28 76.66, -44.68 82.24 2.24 10
6 10/06/2020 14:54:53 -77.06, 121.60 97.30 10/06/2020 14:56:00 -77.09, 124.32 97.38 67.93 67
7 10/09/2020 08:50:05 -76.63,-145.71 96.75 10/09/2020 08:49:12 -76.64,-145.75 96.73 1.29 53
8 10/09/2020 09:39:33 76.70, 21.69 83.35 10/09/2020 09:39:51 76.67, 21.72 83.32 3.04 18
9 10/12/2020 04:24:18 -76.63, -79.27 95.70 10/12/2020 04:23:34 -76.65, -79.36 95.66 3.15 44
10 10/12/2020 05:13:46 76.70, 88.11 84.40 10/12/2020 05:14:13 76.69, 88.11 84.39 1.82 27
11 10/14/2020 23:58:33 -76.68, -13.02 94.59 10/14/2020 23:57:57 -76.66, -12.97 94.61 2.71 36
12 10/15/2020 00:48:00 76.71, 154.52 85.46 10/15/2020 00:48:36 76.70, 154.50 85.44 1.65 36
